Weather History for Ft Lauderdale, FL

Change the Weather History Date:

Sunday, August 10, 2014

  Actual Average Record
Temperature  
Mean Temperature 87 °F 85 °F  
Max Temperature 92 °F 91 °F 98 °F (1963)
Min Temperature 81 °F 79 °F 68 °F (1924)
Degree Days  
Heating Degree Days 0 0  
Month to date heating degree days 0 0  
Since 1 June heating degree days 0 0  
Since 1 July heating degree days 0 0  
Cooling Degree Days 22 20  
Month to date cooling degree days 199 200  
Year to date cooling degree days 2865 2759  
Since 1 June cooling degree days 1330 1341  
Growing Degree Days 36 (Base 50)    
Moisture  
Dew Point 74 °F    
Average Humidity 69    
Maximum Humidity 80    
Minimum Humidity 57    
Precipitation  
Precipitation 0.00 in 0.23 in 3.35 in (2003)
Month to date precipitation 2.39 2.19  
Year to date precipitation 40.81 35.82  
Snow  
Snow 0.00 in - - ()
Month to date snowfall 0.0  
Since 1 June snowfall 0.0  
Since 1 July snowfall 0.0  
Snow Depth 0.00 in    
Sea Level Pressure  
Sea Level Pressure 30.04 in    
Wind  
Wind Speed 7 mph (South)    
Max Wind Speed 17 mph    
Max Gust Speed 20 mph    
Visibility 10 miles    
Events      
T = Trace of Precipitation, MM = Missing Value Source: NWS Daily Summary

Daily Weather History Graph

Daily Weather History Graph

Search for Another Location

Airport:

Trip Planner

Search our weather history database for the weather conditions in past years. The results will help you decide how hot, cold, wet, or windy it might be!

Date:

Astronomy

Aug. 10, 2014 Rise Set
Actual Time 6:50 AM EDT 8:00 PM EDT
Civil Twilight 6:26 AM EDT 8:24 PM EDT
Nautical Twilight 5:57 AM EDT 8:53 PM EDT
Astronomical Twilight 5:27 AM EDT 9:23 PM EDT
Moon 7:54 PM EDT (8/10) 6:36 AM EDT (8/10)
Length of Visible Light 13h 58m
Length of Day
13h 09m
Full, 100% of the Moon is Illuminated
Aug 10
Full
Aug 10
Full
Aug 17
Last Quarter
Aug 25
New
Sep 2
First Quarter

Hourly Weather History & Observations

Time (EDT) Temp. Heat Index Dew Point Humidity Pressure Visibility Wind Dir Wind Speed Gust Speed Precip Events Conditions
12:53 AM 82.9 °F 88.8 °F 73.0 °F 72% 30.06 in 10.0 mi Calm Calm - N/A   Partly Cloudy
1:53 AM 84.0 °F 91.9 °F 75.0 °F 74% 30.05 in 10.0 mi South 3.5 mph - N/A   Partly Cloudy
2:53 AM 84.0 °F 91.9 °F 75.0 °F 74% 30.05 in 10.0 mi SSE 3.5 mph - N/A   Clear
3:53 AM 82.9 °F 90.2 °F 75.0 °F 77% 30.04 in 10.0 mi SSW 3.5 mph - N/A   Clear
4:53 AM 82.9 °F 90.2 °F 75.0 °F 77% 30.03 in 10.0 mi Calm Calm - N/A   Scattered Clouds
5:53 AM 82.0 °F 87.9 °F 73.9 °F 76% 30.03 in 10.0 mi SW 4.6 mph - N/A   Clear
6:53 AM 82.0 °F 87.9 °F 73.9 °F 76% 30.05 in 10.0 mi SSW 4.6 mph - N/A   Partly Cloudy
7:53 AM 82.9 °F 90.2 °F 75.0 °F 77% 30.06 in 10.0 mi SW 4.6 mph - N/A   Partly Cloudy
8:53 AM 84.9 °F 95.3 °F 77.0 °F 77% 30.07 in 10.0 mi West 4.6 mph - N/A   Clear
9:53 AM 87.1 °F 97.3 °F 75.9 °F 69% 30.07 in 10.0 mi SSW 5.8 mph - N/A   Mostly Cloudy
10:53 AM 89.1 °F 97.0 °F 73.0 °F 59% 30.08 in 10.0 mi Variable 4.6 mph - N/A   Scattered Clouds
11:53 AM 90.0 °F 100.2 °F 75.0 °F 61% 30.08 in 10.0 mi SSE 5.8 mph - N/A   Scattered Clouds
12:53 PM 91.9 °F 103.2 °F 75.0 °F 58% 30.06 in 10.0 mi ESE 12.7 mph - N/A   Partly Cloudy
1:53 PM 91.0 °F 101.6 °F 75.0 °F 59% 30.05 in 10.0 mi SE 12.7 mph - N/A   Partly Cloudy
2:53 PM 91.9 °F 103.2 °F 75.0 °F 58% 30.03 in 10.0 mi SE 13.8 mph - N/A   Partly Cloudy
3:53 PM 91.0 °F 101.6 °F 75.0 °F 59% 30.02 in 10.0 mi SSE 12.7 mph - N/A   Partly Cloudy
4:53 PM 90.0 °F 99.0 °F 73.9 °F 59% 30.01 in 10.0 mi SE 12.7 mph - N/A   Partly Cloudy
5:53 PM 89.1 °F 98.0 °F 73.9 °F 61% 30.00 in 10.0 mi SE 12.7 mph - N/A   Partly Cloudy
6:53 PM 84.0 °F 87.0 °F 68.0 °F 58% 30.02 in 10.0 mi West 6.9 mph - N/A   Mostly Cloudy
7:53 PM 86.0 °F 90.1 °F 69.1 °F 57% 30.01 in 10.0 mi SSE 5.8 mph - N/A   Partly Cloudy
8:53 PM 86.0 °F 93.0 °F 73.0 °F 65% 30.02 in 10.0 mi SSE 5.8 mph - N/A   Partly Cloudy
9:53 PM 84.9 °F 92.1 °F 73.9 °F 69% 30.06 in 10.0 mi West 8.1 mph - N/A   Scattered Clouds
10:53 PM 82.4 °F 87.2 °F 71.6 °F 70% 30.06 in 10.0 mi West 3.5 mph - N/A   Scattered Clouds
11:53 PM 82.9 °F 87.0 °F 70.0 °F 65% 30.05 in 10.0 mi Calm Calm - N/A   Mostly Cloudy